Flag for Canada Weather past 2 weeks in Gander, Newfoundland and Labrador, Canada

Now
63 °F

Mostly cloudy.


Feels Like: 63 °F
Forecast: 51 / 69 °F
Wind: 12 mph from Southeast

Location: Gander Int. Airport

Current Time: Sep 1, 2015 at 6:23:29 AM

Latest Report: Sep 1, 2015 at 5:30 AM


Visibility: 15 mi

Pressure: 29.58 "Hg

Humidity: 94%

Dew point: 61 °F

Location of GanderLocation

Historic Weather in Gander — Graph

°F

Gander temperature yesterday

Maximum temperature yesterday: 72 °F (at 3:30 PM)
Minimum temperature yesterday: 57 °F (at 4:30 AM)
Average temperature yesterday: 64 °F

Past Weeks' High & Low Weather Summary

 TemperatureHumidityPressure
High88 °F (Aug 18, 2:30 PM)100% (Aug 23, 2:30 AM)30.39 "Hg (Aug 23, 2:30 AM)
Low50 °F (Aug 19, 3:30 AM)44% (Aug 27, 4:30 PM)29.59 "Hg (Sep 1, 4:30 AM)
Average65 °F79%30.05 "Hg
* Reported Aug 17 4:30 AM — Sep 1 4:30 AM, Gander, Weather by CustomWeather, © 2015

Note: Actual official high and low records may vary slightly from our data, if they occured in-between our weather recording intervals... More about our weather records

Advertising

Gander weather history for previous 24 hours

 ConditionsComfort  
Time TempWeatherWind HumidityBarometerVisibility
4:30 AM
Tue, Sep 1
63 °FOvercast.10 mph94%29.59 "Hg15 mi
3:30 AM63 °FOvercast.15 mph94%29.61 "Hg12 mi
2:30 AM63 °FMostly cloudy.15 mph88%29.62 "Hg15 mi
2:15 AM63 °FMostly cloudy.15 mph88%29.64 "Hg20 mi
12:30 AM64 °FMostly cloudy.17 mph88%29.67 "Hg20 mi
11:30 PM
Mon, Aug 31
63 °FPartly cloudy.13 mph94%29.69 "Hg20 mi
10:30 PM64 °FOvercast.12 mph88%29.71 "Hg20 mi
9:30 PM64 °FPartly cloudy.9 mph88%29.72 "Hg20 mi
8:30 PM66 °FMostly cloudy.16 mph83%29.72 "Hg20 mi
7:30 PM68 °FPartly sunny.14 mph78%29.73 "Hg20 mi
6:30 PM68 °FBroken clouds.14 mph73%29.74 "Hg15 mi
5:30 PM70 °FBroken clouds.13 mph73%29.75 "Hg15 mi
4:30 PM72 °FBroken clouds.17 mph73%29.76 "Hg15 mi
3:30 PM72 °FMostly cloudy.10 mph69%29.77 "Hg15 mi
2:30 PM70 °FCloudy.13 mph78%29.80 "Hg15 mi
1:30 PM70 °FMostly cloudy.13 mph78%29.82 "Hg15 mi
12:30 PM66 °FMostly cloudy.9 mph83%29.84 "Hg15 mi
11:30 AM66 °FPartly sunny.12 mph88%29.85 "Hg12 mi
10:30 AM64 °FBroken clouds.12 mph88%29.87 "Hg12 mi
10:17 AM64 °FPartly sunny.12 mph88%29.86 "Hg12 mi
9:30 AM64 °FPartly sunny.10 mph88%29.87 "Hg12 mi
8:30 AM63 °FPartly sunny.9 mph94%29.87 "Hg12 mi
7:30 AM61 °FPartly sunny.9 mph94%29.88 "Hg10 mi
6:30 AM59 °FPartly cloudy.9 mph100%29.88 "Hg12 mi
Weather by CustomWeather, © 2015

See weather overviewHow to use our weather pages